Time,TemperatureF,DewpointF,PressureIn,WindDirection,WindDirectionDegrees,WindSpeedMPH,WindSpeedGustMPH,Humidity,HourlyPrecipIn,Conditions,Clouds,dailyrainin,SoftwareType,DateUTC
2013-09-06 00:00:00,74.7,65.5,30.07,South,176,0.0,0.0,73,0.00,,,0.00,VWS V14.01,2013-09-06 05:00:00,
2013-09-06 00:01:00,74.7,65.5,30.07,South,176,0.0,0.0,73,0.00,,,0.00,VWS V14.01,2013-09-06 05:01:00,
2013-09-06 00:06:00,74.7,65.5,30.07,South,176,0.0,0.0,73,0.00,,,0.00,VWS V14.01,2013-09-06 05:06:00,
2013-09-06 00:11:00,74.7,65.9,30.07,South,176,0.0,0.0,74,0.00,,,0.00,VWS V14.01,2013-09-06 05:11:00,
2013-09-06 00:16:00,74.7,66.3,30.07,South,176,0.0,0.0,75,0.00,,,0.00,VWS V14.01,2013-09-06 05:16:00,
2013-09-06 00:21:00,74.6,66.2,30.07,South,176,0.0,0.0,75,0.00,,,0.00,VWS V14.01,2013-09-06 05:21:00,
2013-09-06 00:26:00,74.4,66.0,30.07,South,176,0.0,0.0,75,0.00,,,0.00,VWS V14.01,2013-09-06 05:26:00,
2013-09-06 00:30:00,74.3,65.9,30.07,South,176,0.0,0.0,75,0.00,,,0.00,VWS V14.01,2013-09-06 05:30:00,
2013-09-06 00:31:00,74.2,65.8,30.07,South,176,0.0,0.0,75,0.00,,,0.00,VWS V14.01,2013-09-06 05:31:00,
2013-09-06 00:36:00,74.1,65.7,30.07,South,176,0.0,0.0,75,0.00,,,0.00,VWS V14.01,2013-09-06 05:36:00,
2013-09-06 00:41:00,73.9,65.9,30.06,South,176,0.0,0.0,76,0.00,,,0.00,VWS V14.01,2013-09-06 05:41:00,
2013-09-06 00:46:00,73.7,65.7,30.07,South,176,0.0,0.0,76,0.00,,,0.00,VWS V14.01,2013-09-06 05:46:00,
2013-09-06 00:51:00,73.5,65.9,30.07,South,176,0.0,0.0,77,0.00,,,0.00,VWS V14.01,2013-09-06 05:51:00,
2013-09-06 00:57:00,73.3,65.7,30.07,South,176,0.0,0.0,77,0.00,,,0.00,VWS V14.01,2013-09-06 05:57:00,
2013-09-06 01:00:00,73.1,65.5,30.07,South,176,0.0,0.0,77,0.00,,,0.00,VWS V14.01,2013-09-06 06:00:00,
2013-09-06 01:02:00,73.1,65.5,30.07,South,176,0.0,0.0,77,0.00,,,0.00,VWS V14.01,2013-09-06 06:02:00,
2013-09-06 01:07:00,73.0,65.7,30.07,South,176,0.0,0.0,78,0.00,,,0.00,VWS V14.01,2013-09-06 06:07:00,
2013-09-06 01:12:00,72.7,65.1,30.07,South,176,0.0,0.0,77,0.00,,,0.00,VWS V14.01,2013-09-06 06:12:00,
2013-09-06 01:17:00,72.5,64.9,30.07,South,176,0.0,0.0,77,0.00,,,0.00,VWS V14.01,2013-09-06 06:17:00,
2013-09-06 01:22:00,72.3,65.1,30.07,South,176,0.0,0.0,78,0.00,,,0.00,VWS V14.01,2013-09-06 06:22:00,
2013-09-06 01:27:00,72.1,65.2,30.07,South,176,0.0,0.0,79,0.00,,,0.00,VWS V14.01,2013-09-06 06:27:00,
2013-09-06 01:30:00,71.9,65.4,30.07,South,176,0.0,0.0,80,0.00,,,0.00,VWS V14.01,2013-09-06 06:30:00,
2013-09-06 01:32:00,71.9,65.4,30.07,South,176,0.0,0.0,80,0.00,,,0.00,VWS V14.01,2013-09-06 06:32:00,
2013-09-06 01:37:00,71.8,65.3,30.07,South,176,0.0,0.0,80,0.00,,,0.00,VWS V14.01,2013-09-06 06:37:00,
2013-09-06 01:42:00,71.6,65.1,30.06,South,176,0.0,0.0,80,0.00,,,0.00,VWS V14.01,2013-09-06 06:42:00,
2013-09-06 01:47:00,71.3,64.8,30.07,South,176,0.0,0.0,80,0.00,,,0.00,VWS V14.01,2013-09-06 06:47:00,
2013-09-06 01:52:00,71.3,64.8,30.07,South,176,0.0,0.0,80,0.00,,,0.00,VWS V14.01,2013-09-06 06:52:00,
2013-09-06 01:57:00,71.1,64.6,30.07,South,176,0.0,0.0,80,0.00,,,0.00,VWS V14.01,2013-09-06 06:57:00,
2013-09-06 02:00:00,71.0,64.2,30.07,South,176,0.0,0.0,79,0.00,,,0.00,VWS V14.01,2013-09-06 07:00:00,
2013-09-06 02:02:00,71.0,64.2,30.07,South,176,0.0,0.0,79,0.00,,,0.00,VWS V14.01,2013-09-06 07:02:00,
2013-09-06 02:07:00,70.8,64.0,30.07,South,176,0.0,0.0,79,0.00,,,0.00,VWS V14.01,2013-09-06 07:07:00,
2013-09-06 02:12:00,70.7,64.2,30.07,South,176,0.0,0.0,80,0.00,,,0.00,VWS V14.01,2013-09-06 07:12:00,
2013-09-06 02:17:00,70.7,63.9,30.06,South,176,0.0,0.0,79,0.00,,,0.00,VWS V14.01,2013-09-06 07:17:00,
2013-09-06 02:22:00,70.6,63.8,30.06,South,176,0.0,0.0,79,0.00,,,0.00,VWS V14.01,2013-09-06 07:22:00,
2013-09-06 02:27:00,70.5,63.7,30.06,South,176,0.0,0.0,79,0.00,,,0.00,VWS V14.01,2013-09-06 07:27:00,
2013-09-06 02:30:00,70.5,63.7,30.06,South,176,0.0,0.0,79,0.00,,,0.00,VWS V14.01,2013-09-06 07:30:00,
2013-09-06 02:32:00,70.5,63.7,30.06,South,176,0.0,0.0,79,0.00,,,0.00,VWS V14.01,2013-09-06 07:32:00,
2013-09-06 02:37:00,70.5,63.7,30.06,South,176,0.0,0.0,79,0.00,,,0.00,VWS V14.01,2013-09-06 07:37:00,
2013-09-06 02:42:00,70.4,63.6,30.06,South,176,0.0,0.0,79,0.00,,,0.00,VWS V14.01,2013-09-06 07:42:00,
2013-09-06 02:47:00,70.3,63.1,30.06,South,176,0.0,0.0,78,0.00,,,0.00,VWS V14.01,2013-09-06 07:47:00,
2013-09-06 02:52:00,70.3,63.1,30.06,South,176,0.0,0.0,78,0.00,,,0.00,VWS V14.01,2013-09-06 07:52:00,
2013-09-06 02:57:00,70.2,63.4,30.06,South,176,0.0,0.0,79,0.00,,,0.00,VWS V14.01,2013-09-06 07:57:00,
2013-09-06 03:00:00,70.1,63.3,30.06,South,176,0.0,0.0,79,0.00,,,0.00,VWS V14.01,2013-09-06 08:00:00,
2013-09-06 03:02:00,70.1,63.3,30.06,South,176,0.0,0.0,79,0.00,,,0.00,VWS V14.01,2013-09-06 08:02:00,
2013-09-06 03:07:00,70.1,63.3,30.06,South,176,0.0,0.0,79,0.00,,,0.00,VWS V14.01,2013-09-06 08:07:00,
2013-09-06 03:12:00,70.0,63.2,30.06,South,176,0.0,0.0,79,0.00,,,0.00,VWS V14.01,2013-09-06 08:12:00,
2013-09-06 03:17:00,69.9,63.1,30.06,South,176,0.0,0.0,79,0.00,,,0.00,VWS V14.01,2013-09-06 08:17:00,
2013-09-06 03:22:00,69.8,63.0,30.06,South,176,0.0,0.0,79,0.00,,,0.00,VWS V14.01,2013-09-06 08:22:00,
2013-09-06 03:27:00,69.7,62.9,30.06,South,176,0.0,0.0,79,0.00,,,0.00,VWS V14.01,2013-09-06 08:27:00,
2013-09-06 03:30:00,69.6,62.8,30.06,South,176,0.0,0.0,79,0.00,,,0.00,VWS V14.01,2013-09-06 08:30:00,
2013-09-06 03:32:00,69.6,62.8,30.06,South,176,0.0,0.0,79,0.00,,,0.00,VWS V14.01,2013-09-06 08:32:00,
2013-09-06 03:37:00,69.5,62.7,30.06,South,176,0.0,0.0,79,0.00,,,0.00,VWS V14.01,2013-09-06 08:37:00,
2013-09-06 03:42:00,69.4,62.6,30.06,South,176,0.0,0.0,79,0.00,,,0.00,VWS V14.01,2013-09-06 08:42:00,
2013-09-06 03:47:00,69.4,62.6,30.06,South,176,0.0,0.0,79,0.00,,,0.00,VWS V14.01,2013-09-06 08:47:00,
2013-09-06 03:52:00,69.3,62.5,30.06,South,176,0.0,0.0,79,0.00,,,0.00,VWS V14.01,2013-09-06 08:52:00,
2013-09-06 03:57:00,69.2,62.8,30.06,South,176,0.0,0.0,80,0.00,,,0.00,VWS V14.01,2013-09-06 08:57:00,
2013-09-06 04:00:00,69.1,62.7,30.06,South,176,0.0,0.0,80,0.00,,,0.00,VWS V14.01,2013-09-06 09:00:00,
2013-09-06 04:02:00,69.1,62.7,30.06,South,176,0.0,0.0,80,0.00,,,0.00,VWS V14.01,2013-09-06 09:02:00,
2013-09-06 04:07:00,69.1,62.7,30.06,South,176,0.0,0.0,80,0.00,,,0.00,VWS V14.01,2013-09-06 09:07:00,
2013-09-06 04:12:00,69.0,62.6,30.06,South,176,0.0,0.0,80,0.00,,,0.00,VWS V14.01,2013-09-06 09:12:00,
2013-09-06 04:17:00,68.9,62.5,30.06,South,176,0.0,0.0,80,0.00,,,0.00,VWS V14.01,2013-09-06 09:17:00,
2013-09-06 04:22:00,68.8,62.4,30.06,South,176,0.0,0.0,80,0.00,,,0.00,VWS V14.01,2013-09-06 09:22:00,
2013-09-06 04:27:00,68.8,62.4,30.06,South,176,0.0,0.0,80,0.00,,,0.00,VWS V14.01,2013-09-06 09:27:00,
2013-09-06 04:30:00,68.7,62.3,30.06,South,176,0.0,0.0,80,0.00,,,0.00,VWS V14.01,2013-09-06 09:30:00,
2013-09-06 04:32:00,68.7,62.3,30.06,South,176,0.0,0.0,80,0.00,,,0.00,VWS V14.01,2013-09-06 09:32:00,
2013-09-06 04:37:00,68.6,62.2,30.06,South,176,0.0,0.0,80,0.00,,,0.00,VWS V14.01,2013-09-06 09:37:00,
2013-09-06 04:42:00,68.5,62.1,30.05,South,176,0.0,0.0,80,0.00,,,0.00,VWS V14.01,2013-09-06 09:42:00,
2013-09-06 04:47:00,68.5,62.5,30.05,South,176,0.0,0.0,81,0.00,,,0.00,VWS V14.01,2013-09-06 09:47:00,
2013-09-06 04:52:00,68.4,62.3,30.05,South,176,0.0,0.0,81,0.00,,,0.00,VWS V14.01,2013-09-06 09:52:00,
2013-09-06 04:57:00,68.3,62.2,30.05,South,176,0.0,0.0,81,0.00,,,0.00,VWS V14.01,2013-09-06 09:57:00,
2013-09-06 05:00:00,68.3,62.2,30.05,South,176,0.0,0.0,81,0.00,,,0.00,VWS V14.01,2013-09-06 10:00:00,
2013-09-06 05:02:00,68.3,62.2,30.05,South,176,0.0,0.0,81,0.00,,,0.00,VWS V14.01,2013-09-06 10:02:00,
2013-09-06 05:07:00,68.3,62.2,30.05,South,176,0.0,0.0,81,0.00,,,0.00,VWS V14.01,2013-09-06 10:07:00,
2013-09-06 05:12:00,68.3,62.2,30.05,South,176,0.0,0.0,81,0.00,,,0.00,VWS V14.01,2013-09-06 10:12:00,
2013-09-06 05:17:00,68.2,62.2,30.05,South,176,0.0,0.0,81,0.00,,,0.00,VWS V14.01,2013-09-06 10:17:00,
2013-09-06 05:22:00,68.2,62.2,30.06,South,176,0.0,0.0,81,0.00,,,0.00,VWS V14.01,2013-09-06 10:22:00,
2013-09-06 05:27:00,68.1,62.1,30.05,South,176,0.0,0.0,81,0.00,,,0.00,VWS V14.01,2013-09-06 10:27:00,
2013-09-06 05:30:00,68.0,62.0,30.06,South,176,0.0,0.0,81,0.00,,,0.00,VWS V14.01,2013-09-06 10:30:00,
2013-09-06 05:32:00,68.0,62.0,30.06,South,176,0.0,0.0,81,0.00,,,0.00,VWS V14.01,2013-09-06 10:32:00,
2013-09-06 05:37:00,68.0,62.3,30.06,South,176,0.0,0.0,82,0.00,,,0.00,VWS V14.01,2013-09-06 10:37:00,
2013-09-06 05:42:00,67.9,62.2,30.06,South,176,0.0,0.0,82,0.00,,,0.00,VWS V14.01,2013-09-06 10:42:00,
2013-09-06 05:47:00,67.9,62.2,30.06,South,176,0.0,0.0,82,0.00,,,0.00,VWS V14.01,2013-09-06 10:47:00,
2013-09-06 05:52:00,67.8,62.1,30.06,South,176,0.0,0.0,82,0.00,,,0.00,VWS V14.01,2013-09-06 10:52:00,
2013-09-06 05:58:00,67.7,62.0,30.07,South,176,0.0,0.0,82,0.00,,,0.00,VWS V14.01,2013-09-06 10:58:00,
2013-09-06 06:00:00,67.7,62.0,30.06,South,176,0.0,0.0,82,0.00,,,0.00,VWS V14.01,2013-09-06 11:00:00,
2013-09-06 06:02:00,67.7,62.0,30.07,South,176,0.0,0.0,82,0.00,,,0.00,VWS V14.01,2013-09-06 11:02:00,
2013-09-06 06:08:00,67.6,61.9,30.07,South,176,0.0,0.0,82,0.00,,,0.00,VWS V14.01,2013-09-06 11:08:00,
2013-09-06 06:13:00,67.6,61.9,30.07,South,176,0.0,0.0,82,0.00,,,0.00,VWS V14.01,2013-09-06 11:13:00,
2013-09-06 06:18:00,67.5,62.2,30.07,South,176,0.0,0.0,83,0.00,,,0.00,VWS V14.01,2013-09-06 11:18:00,
2013-09-06 06:23:00,67.5,62.2,30.07,South,176,0.0,0.0,83,0.00,,,0.00,VWS V14.01,2013-09-06 11:23:00,
2013-09-06 06:28:00,67.4,62.1,30.07,South,176,0.0,0.0,83,0.00,,,0.00,VWS V14.01,2013-09-06 11:28:00,
2013-09-06 06:30:00,67.4,62.1,30.07,South,176,0.0,0.0,83,0.00,,,0.00,VWS V14.01,2013-09-06 11:30:00,
2013-09-06 06:33:00,67.3,62.0,30.07,South,176,0.0,0.0,83,0.00,,,0.00,VWS V14.01,2013-09-06 11:33:00,
2013-09-06 06:38:00,67.3,62.0,30.07,South,176,0.0,0.0,83,0.00,,,0.00,VWS V14.01,2013-09-06 11:38:00,
2013-09-06 06:43:00,67.2,61.9,30.07,South,176,0.0,0.0,83,0.00,,,0.00,VWS V14.01,2013-09-06 11:43:00,
2013-09-06 06:48:00,67.2,61.9,30.07,South,176,0.0,0.0,83,0.00,,,0.00,VWS V14.01,2013-09-06 11:48:00,
2013-09-06 06:53:00,67.1,61.8,30.07,South,176,0.0,0.0,83,0.00,,,0.00,VWS V14.01,2013-09-06 11:53:00,
2013-09-06 06:58:00,67.1,62.1,30.08,South,176,0.0,0.0,84,0.00,,,0.00,VWS V14.01,2013-09-06 11:58:00,
2013-09-06 07:00:00,67.1,62.1,30.08,South,176,0.0,0.0,84,0.00,,,0.00,VWS V14.01,2013-09-06 12:00:00,
2013-09-06 07:03:00,67.0,62.0,30.08,South,176,0.0,0.0,84,0.00,,,0.00,VWS V14.01,2013-09-06 12:03:00,
2013-09-06 07:08:00,67.0,62.0,30.08,South,176,0.0,0.0,84,0.00,,,0.00,VWS V14.01,2013-09-06 12:08:00,
2013-09-06 07:13:00,67.0,62.0,30.08,South,176,0.0,0.0,84,0.00,,,0.00,VWS V14.01,2013-09-06 12:13:00,
2013-09-06 07:18:00,67.0,62.0,30.08,South,176,0.0,0.0,84,0.00,,,0.00,VWS V14.01,2013-09-06 12:18:00,
2013-09-06 07:23:00,67.0,62.3,30.08,South,176,0.0,0.0,85,0.00,,,0.00,VWS V14.01,2013-09-06 12:23:00,
2013-09-06 07:28:00,67.0,62.3,30.08,South,176,0.0,0.0,85,0.00,,,0.00,VWS V14.01,2013-09-06 12:28:00,
2013-09-06 07:30:00,67.1,62.5,30.08,South,176,0.0,0.0,85,0.00,,,0.00,VWS V14.01,2013-09-06 12:30:00,
2013-09-06 07:33:00,67.1,62.5,30.08,South,176,0.0,0.0,85,0.00,,,0.00,VWS V14.01,2013-09-06 12:33:00,
2013-09-06 07:38:00,67.2,62.5,30.08,South,176,0.0,1.0,85,0.00,,,0.00,VWS V14.01,2013-09-06 12:38:00,
2013-09-06 07:43:00,67.4,62.7,30.09,South,176,0.0,1.0,85,0.00,,,0.00,VWS V14.01,2013-09-06 12:43:00,
2013-09-06 07:48:00,67.6,62.9,30.09,South,176,0.0,1.0,85,0.00,,,0.00,VWS V14.01,2013-09-06 12:48:00,
2013-09-06 07:53:00,67.8,63.1,30.09,South,176,0.0,1.0,85,0.00,,,0.00,VWS V14.01,2013-09-06 12:53:00,
2013-09-06 07:58:00,68.0,63.0,30.09,South,176,0.0,1.0,84,0.00,,,0.00,VWS V14.01,2013-09-06 12:58:00,
2013-09-06 08:00:00,68.3,63.3,30.09,South,176,0.0,1.0,84,0.00,,,0.00,VWS V14.01,2013-09-06 13:00:00,
2013-09-06 08:03:00,68.3,63.3,30.09,South,176,0.0,0.0,84,0.00,,,0.00,VWS V14.01,2013-09-06 13:03:00,
2013-09-06 08:08:00,68.6,63.9,30.09,South,176,0.0,1.0,85,0.00,,,0.00,VWS V14.01,2013-09-06 13:08:00,
2013-09-06 08:13:00,68.9,63.9,30.09,South,176,0.0,1.0,84,0.00,,,0.00,VWS V14.01,2013-09-06 13:13:00,
2013-09-06 08:18:00,69.2,64.2,30.09,South,176,0.0,1.0,84,0.00,,,0.00,VWS V14.01,2013-09-06 13:18:00,
2013-09-06 08:23:00,69.6,64.2,30.09,South,176,0.0,1.0,83,0.00,,,0.00,VWS V14.01,2013-09-06 13:23:00,
2013-09-06 08:28:00,70.2,64.4,30.09,South,176,0.0,2.0,82,0.00,,,0.00,VWS V14.01,2013-09-06 13:28:00,
2013-09-06 08:30:00,71.0,64.5,30.09,South,176,0.0,2.0,80,0.00,,,0.00,VWS V14.01,2013-09-06 13:30:00,
2013-09-06 08:33:00,71.1,64.6,30.09,South,176,0.0,0.0,80,0.00,,,0.00,VWS V14.01,2013-09-06 13:33:00,
2013-09-06 08:38:00,71.8,64.9,30.10,South,176,0.0,0.0,79,0.00,,,0.00,VWS V14.01,2013-09-06 13:38:00,
2013-09-06 08:43:00,72.3,65.1,30.10,South,186,0.0,2.0,78,0.00,,,0.00,VWS V14.01,2013-09-06 13:43:00,
2013-09-06 08:48:00,72.7,65.1,30.10,South,186,0.0,2.0,77,0.00,,,0.00,VWS V14.01,2013-09-06 13:48:00,
2013-09-06 08:53:00,73.2,65.2,30.10,South,188,0.0,2.0,76,0.00,,,0.00,VWS V14.01,2013-09-06 13:53:00,
2013-09-06 08:58:00,73.8,65.4,30.10,SSW,194,4.0,4.0,75,0.00,,,0.00,VWS V14.01,2013-09-06 13:58:00,
2013-09-06 09:00:00,74.2,65.4,30.10,SW,216,1.0,4.0,74,0.00,,,0.00,VWS V14.01,2013-09-06 14:00:00,
2013-09-06 09:03:00,74.2,65.4,30.10,SW,215,0.0,1.0,74,0.00,,,0.00,VWS V14.01,2013-09-06 14:03:00,
2013-09-06 09:08:00,74.4,65.6,30.09,ESE,108,1.0,4.0,74,0.00,,,0.00,VWS V14.01,2013-09-06 14:08:00,
2013-09-06 09:13:00,74.6,65.4,30.10,ESE,110,0.0,4.0,73,0.00,,,0.00,VWS V14.01,2013-09-06 14:13:00,
2013-09-06 09:18:00,74.8,65.2,30.10,ESE,111,0.0,4.0,72,0.00,,,0.00,VWS V14.01,2013-09-06 14:18:00,
2013-09-06 09:23:00,75.2,65.6,30.10,ESE,113,0.0,4.0,72,0.00,,,0.00,VWS V14.01,2013-09-06 14:23:00,
2013-09-06 09:28:00,75.7,66.0,30.10,ESE,113,0.0,4.0,72,0.00,,,0.00,VWS V14.01,2013-09-06 14:28:00,
2013-09-06 09:30:00,76.4,66.3,30.10,SW,226,0.0,4.0,71,0.00,,,0.00,VWS V14.01,2013-09-06 14:30:00,
2013-09-06 09:33:00,76.6,66.1,30.10,SW,226,0.0,0.0,70,0.00,,,0.00,VWS V14.01,2013-09-06 14:33:00,
2013-09-06 09:38:00,77.9,66.1,30.10,SW,227,0.0,4.0,67,0.00,,,0.00,VWS V14.01,2013-09-06 14:38:00,
2013-09-06 09:43:00,78.7,66.4,30.10,SW,226,0.0,4.0,66,0.00,,,0.00,VWS V14.01,2013-09-06 14:43:00,
2013-09-06 09:48:00,79.4,66.2,30.10,SSW,210,0.0,8.0,64,0.00,,,0.00,VWS V14.01,2013-09-06 14:48:00,
2013-09-06 09:53:00,80.1,65.9,30.10,SW,217,0.0,8.0,62,0.00,,,0.00,VWS V14.01,2013-09-06 14:53:00,
2013-09-06 09:58:00,80.9,66.2,30.10,SSW,198,1.0,8.0,61,0.00,,,0.00,VWS V14.01,2013-09-06 14:58:00,
2013-09-06 10:00:00,81.0,65.8,30.10,SE,146,0.0,8.0,60,0.00,,,0.00,VWS V14.01,2013-09-06 15:00:00,
2013-09-06 10:03:00,81.0,66.3,30.10,SE,146,0.0,1.0,61,0.00,,,0.00,VWS V14.01,2013-09-06 15:03:00,
2013-09-06 10:08:00,81.3,66.1,30.10,SSE,155,0.0,5.0,60,0.00,,,0.00,VWS V14.01,2013-09-06 15:08:00,
2013-09-06 10:13:00,81.6,66.4,30.10,SW,233,4.0,7.0,60,0.00,,,0.00,VWS V14.01,2013-09-06 15:13:00,
2013-09-06 10:18:00,82.0,66.8,30.10,SSW,210,0.0,7.0,60,0.00,,,0.00,VWS V14.01,2013-09-06 15:18:00,
2013-09-06 10:23:00,82.7,66.9,30.10,South,180,0.0,7.0,59,0.00,,,0.00,VWS V14.01,2013-09-06 15:23:00,
2013-09-06 10:28:00,83.2,66.9,30.10,SE,130,0.0,7.0,58,0.00,,,0.00,VWS V14.01,2013-09-06 15:28:00,
2013-09-06 10:30:00,83.6,66.8,30.10,SE,130,0.0,7.0,57,0.00,,,0.00,VWS V14.01,2013-09-06 15:30:00,
2013-09-06 10:33:00,83.8,68.0,30.10,SE,132,0.0,1.0,59,0.00,,,0.00,VWS V14.01,2013-09-06 15:33:00,
2013-09-06 10:38:00,84.0,67.1,30.10,SE,126,2.0,4.0,57,0.00,,,0.00,VWS V14.01,2013-09-06 15:38:00,
2013-09-06 10:43:00,84.3,67.4,30.10,SE,132,0.0,4.0,57,0.00,,,0.00,VWS V14.01,2013-09-06 15:43:00,
2013-09-06 10:48:00,84.0,67.7,30.10,SW,217,0.0,7.0,58,0.00,,,0.00,VWS V14.01,2013-09-06 15:48:00,
2013-09-06 10:53:00,84.0,67.7,30.10,SSW,210,0.0,7.0,58,0.00,,,0.00,VWS V14.01,2013-09-06 15:53:00,
2013-09-06 10:58:00,84.7,68.8,30.10,SSW,209,0.0,7.0,59,0.00,,,0.00,VWS V14.01,2013-09-06 15:58:00,
2013-09-06 11:00:00,85.3,68.4,30.10,South,179,0.0,7.0,57,0.00,,,0.00,VWS V14.01,2013-09-06 16:00:00,
2013-09-06 11:03:00,85.3,67.8,30.10,South,175,0.0,1.0,56,0.00,,,0.00,VWS V14.01,2013-09-06 16:03:00,
2013-09-06 11:08:00,85.4,68.4,30.10,SE,138,0.0,5.0,57,0.00,,,0.00,VWS V14.01,2013-09-06 16:08:00,
2013-09-06 11:13:00,85.7,69.2,30.09,SE,140,1.0,5.0,58,0.00,,,0.00,VWS V14.01,2013-09-06 16:13:00,
2013-09-06 11:18:00,86.1,69.1,30.09,South,178,0.0,5.0,57,0.00,,,0.00,VWS V14.01,2013-09-06 16:18:00,
2013-09-06 11:23:00,86.3,68.8,30.09,SE,132,1.0,5.0,56,0.00,,,0.00,VWS V14.01,2013-09-06 16:23:00,
2013-09-06 11:28:00,86.4,69.4,30.09,ESE,123,1.0,5.0,57,0.00,,,0.00,VWS V14.01,2013-09-06 16:28:00,
2013-09-06 11:30:00,86.8,69.8,30.09,ESE,123,0.0,5.0,57,0.00,,,0.00,VWS V14.01,2013-09-06 16:30:00,
2013-09-06 11:33:00,87.0,69.4,30.09,SE,130,1.0,5.0,56,0.00,,,0.00,VWS V14.01,2013-09-06 16:33:00,
2013-09-06 11:38:00,87.4,69.3,30.09,South,186,1.0,5.0,55,0.00,,,0.00,VWS V14.01,2013-09-06 16:38:00,
2013-09-06 11:43:00,87.3,68.1,30.09,WSW,243,5.0,8.0,53,0.00,,,0.00,VWS V14.01,2013-09-06 16:43:00,
2013-09-06 11:48:00,87.2,69.1,30.09,SSW,193,0.0,8.0,55,0.00,,,0.00,VWS V14.01,2013-09-06 16:48:00,
2013-09-06 11:53:00,87.7,69.0,30.08,SE,144,0.0,8.0,54,0.00,,,0.00,VWS V14.01,2013-09-06 16:53:00,
2013-09-06 11:58:00,88.0,68.7,30.08,SSE,157,0.0,8.0,53,0.00,,,0.00,VWS V14.01,2013-09-06 16:58:00,
2013-09-06 12:00:00,88.3,69.0,30.08,SE,146,1.0,8.0,53,0.00,,,0.00,VWS V14.01,2013-09-06 17:00:00,
2013-09-06 12:03:00,88.2,68.4,30.08,SW,230,0.0,4.0,52,0.00,,,0.00,VWS V14.01,2013-09-06 17:03:00,
2013-09-06 12:09:00,88.7,69.4,30.08,ENE,68,3.0,4.0,53,0.00,,,0.00,VWS V14.01,2013-09-06 17:09:00,
2013-09-06 12:14:00,89.1,69.2,30.08,ENE,74,0.0,4.0,52,0.00,,,0.00,VWS V14.01,2013-09-06 17:14:00,
2013-09-06 12:19:00,89.7,69.2,30.08,SW,220,4.0,6.0,51,0.00,,,0.00,VWS V14.01,2013-09-06 17:19:00,
2013-09-06 12:24:00,89.9,68.8,30.07,SW,225,5.0,6.0,50,0.00,,,0.00,VWS V14.01,2013-09-06 17:24:00,
2013-09-06 12:29:00,89.8,68.1,30.07,SW,226,0.0,7.0,49,0.00,,,0.00,VWS V14.01,2013-09-06 17:29:00,
2013-09-06 12:30:00,90.0,69.5,30.07,East,86,2.0,7.0,51,0.00,,,0.00,VWS V14.01,2013-09-06 17:30:00,
2013-09-06 12:34:00,90.1,69.0,30.07,SSE,157,0.0,5.0,50,0.00,,,0.00,VWS V14.01,2013-09-06 17:34:00,
2013-09-06 12:39:00,90.3,69.7,30.07,SW,226,0.0,9.0,51,0.00,,,0.00,VWS V14.01,2013-09-06 17:39:00,
2013-09-06 12:44:00,90.6,69.4,30.06,SW,218,0.0,9.0,50,0.00,,,0.00,VWS V14.01,2013-09-06 17:44:00,
2013-09-06 12:49:00,91.0,68.0,30.06,SSE,150,0.0,9.0,47,0.00,,,0.00,VWS V14.01,2013-09-06 17:49:00,
2013-09-06 12:54:00,91.7,68.6,30.06,SW,223,2.0,9.0,47,0.00,,,0.00,VWS V14.01,2013-09-06 17:54:00,
2013-09-06 12:59:00,91.7,69.2,30.06,ESE,105,0.0,9.0,48,0.00,,,0.00,VWS V14.01,2013-09-06 17:59:00,
2013-09-06 13:00:00,91.7,69.2,30.06,SE,129,2.0,9.0,48,0.00,,,0.00,VWS V14.01,2013-09-06 18:00:00,
2013-09-06 13:04:00,91.8,68.1,30.06,SW,232,0.0,4.0,46,0.00,,,0.00,VWS V14.01,2013-09-06 18:04:00,
2013-09-06 13:09:00,91.9,69.4,30.06,SSW,207,1.0,4.0,48,0.00,,,0.00,VWS V14.01,2013-09-06 18:09:00,
2013-09-06 13:14:00,92.1,68.4,30.05,ESE,121,0.0,5.0,46,0.00,,,0.00,VWS V14.01,2013-09-06 18:14:00,
2013-09-06 13:19:00,92.3,67.9,30.05,SSE,153,0.0,5.0,45,0.00,,,0.00,VWS V14.01,2013-09-06 18:19:00,
2013-09-06 13:24:00,92.2,69.1,30.05,South,174,1.0,5.0,47,0.00,,,0.00,VWS V14.01,2013-09-06 18:24:00,
2013-09-06 13:29:00,92.3,67.9,30.05,South,171,0.0,5.0,45,0.00,,,0.00,VWS V14.01,2013-09-06 18:29:00,
2013-09-06 13:30:00,92.4,68.0,30.05,SW,219,0.0,6.0,45,0.00,,,0.00,VWS V14.01,2013-09-06 18:30:00,
2013-09-06 13:34:00,92.5,67.4,30.05,ESE,119,0.0,3.0,44,0.00,,,0.00,VWS V14.01,2013-09-06 18:34:00,
2013-09-06 13:39:00,93.2,67.4,30.05,SSW,195,0.0,6.0,43,0.00,,,0.00,VWS V14.01,2013-09-06 18:39:00,
2013-09-06 13:44:00,93.4,67.6,30.04,SE,139,1.0,6.0,43,0.00,,,0.00,VWS V14.01,2013-09-06 18:44:00,
2013-09-06 13:49:00,93.2,68.1,30.04,SSE,151,1.0,6.0,44,0.00,,,0.00,VWS V14.01,2013-09-06 18:49:00,
2013-09-06 13:54:00,93.3,67.5,30.04,SSE,148,0.0,6.0,43,0.00,,,0.00,VWS V14.01,2013-09-06 18:54:00,
2013-09-06 13:59:00,93.7,68.5,30.04,SSE,161,4.0,6.0,44,0.00,,,0.00,VWS V14.01,2013-09-06 18:59:00,
2013-09-06 14:00:00,94.0,67.4,30.04,SSE,160,0.0,6.0,42,0.00,,,0.00,VWS V14.01,2013-09-06 19:00:00,
2013-09-06 14:04:00,94.1,67.5,30.04,SSE,160,0.0,0.0,42,0.00,,,0.00,VWS V14.01,2013-09-06 19:04:00,
2013-09-06 14:09:00,94.4,68.5,30.03,SSE,160,0.0,1.0,43,0.00,,,0.00,VWS V14.01,2013-09-06 19:09:00,
2013-09-06 14:14:00,94.3,67.7,30.03,SSE,150,2.0,5.0,42,0.00,,,0.00,VWS V14.01,2013-09-06 19:14:00,
2013-09-06 14:19:00,94.2,67.6,30.03,ESE,121,1.0,8.0,42,0.00,,,0.00,VWS V14.01,2013-09-06 19:19:00,
2013-09-06 14:24:00,93.9,69.3,30.03,SSE,167,1.0,8.0,45,0.00,,,0.00,VWS V14.01,2013-09-06 19:24:00,
2013-09-06 14:29:00,94.4,67.8,30.03,SW,223,0.0,8.0,42,0.00,,,0.00,VWS V14.01,2013-09-06 19:29:00,
2013-09-06 14:30:00,94.5,69.2,30.03,SW,226,0.0,8.0,44,0.00,,,0.00,VWS V14.01,2013-09-06 19:30:00,
2013-09-06 14:34:00,94.8,67.4,30.02,ESE,120,3.0,7.0,41,0.00,,,0.00,VWS V14.01,2013-09-06 19:34:00,
2013-09-06 14:39:00,94.6,68.7,30.02,ESE,119,0.0,7.0,43,0.00,,,0.00,VWS V14.01,2013-09-06 19:39:00,
2013-09-06 14:44:00,94.4,67.8,30.02,SW,227,0.0,7.0,42,0.00,,,0.00,VWS V14.01,2013-09-06 19:44:00,
2013-09-06 14:49:00,94.6,67.3,30.02,SE,137,0.0,7.0,41,0.00,,,0.00,VWS V14.01,2013-09-06 19:49:00,
2013-09-06 14:54:00,94.8,67.4,30.02,East,82,0.0,7.0,41,0.00,,,0.00,VWS V14.01,2013-09-06 19:54:00,
2013-09-06 14:59:00,95.5,68.8,30.01,SE,126,0.0,7.0,42,0.00,,,0.00,VWS V14.01,2013-09-06 19:59:00,
2013-09-06 15:00:00,95.6,66.7,30.01,East,79,0.0,7.0,39,0.00,,,0.00,VWS V14.01,2013-09-06 20:00:00,
2013-09-06 15:04:00,95.4,67.3,30.01,ENE,77,1.0,4.0,40,0.00,,,0.00,VWS V14.01,2013-09-06 20:04:00,
2013-09-06 15:09:00,95.8,68.3,30.01,SE,140,1.0,6.0,41,0.00,,,0.00,VWS V14.01,2013-09-06 20:09:00,
2013-09-06 15:14:00,96.4,68.9,30.01,SSE,161,0.0,6.0,41,0.00,,,0.00,VWS V14.01,2013-09-06 20:14:00,
2013-09-06 15:19:00,96.0,68.5,30.00,ENE,59,1.0,6.0,41,0.00,,,0.00,VWS V14.01,2013-09-06 20:19:00,
2013-09-06 15:24:00,95.5,68.1,30.00,SE,145,0.0,6.0,41,0.00,,,0.00,VWS V14.01,2013-09-06 20:24:00,
2013-09-06 15:29:00,95.9,69.1,30.00,South,184,1.0,6.0,42,0.00,,,0.00,VWS V14.01,2013-09-06 20:29:00,
2013-09-06 15:30:00,96.3,68.8,30.00,SW,218,0.0,7.0,41,0.00,,,0.00,VWS V14.01,2013-09-06 20:30:00,
2013-09-06 15:34:00,96.2,68.0,30.00,SW,218,1.0,4.0,40,0.00,,,0.00,VWS V14.01,2013-09-06 20:34:00,
2013-09-06 15:39:00,95.8,66.9,30.00,WSW,257,0.0,6.0,39,0.00,,,0.00,VWS V14.01,2013-09-06 20:39:00,
2013-09-06 15:44:00,95.8,67.6,30.00,SW,217,6.0,6.0,40,0.00,,,0.00,VWS V14.01,2013-09-06 20:44:00,
2013-09-06 15:49:00,96.3,67.3,30.00,SSW,205,0.0,6.0,39,0.00,,,0.00,VWS V14.01,2013-09-06 20:49:00,
2013-09-06 15:54:00,96.5,66.8,29.99,SSW,207,1.0,6.0,38,0.00,,,0.00,VWS V14.01,2013-09-06 20:54:00,
2013-09-06 15:59:00,96.9,67.9,29.99,SW,217,0.0,7.0,39,0.00,,,0.00,VWS V14.01,2013-09-06 20:59:00,
2013-09-06 16:00:00,96.9,69.3,29.99,SW,219,0.0,7.0,41,0.00,,,0.00,VWS V14.01,2013-09-06 21:00:00,
2013-09-06 16:04:00,96.9,69.3,29.99,SW,219,2.0,2.0,41,0.00,,,0.00,VWS V14.01,2013-09-06 21:04:00,
2013-09-06 16:09:00,96.7,68.4,29.99,SSE,158,1.0,6.0,40,0.00,,,0.00,VWS V14.01,2013-09-06 21:09:00,
2013-09-06 16:14:00,96.6,69.1,29.99,SE,139,0.0,6.0,41,0.00,,,0.00,VWS V14.01,2013-09-06 21:14:00,
2013-09-06 16:19:00,96.7,68.4,29.98,SE,133,0.0,6.0,40,0.00,,,0.00,VWS V14.01,2013-09-06 21:19:00,
2013-09-06 16:24:00,96.0,67.8,29.98,South,184,0.0,6.0,40,0.00,,,0.00,VWS V14.01,2013-09-06 21:24:00,
2013-09-06 16:29:00,96.0,68.5,29.98,East,89,0.0,8.0,41,0.00,,,0.00,VWS V14.01,2013-09-06 21:29:00,
2013-09-06 16:30:00,96.0,68.5,29.98,SSE,167,2.0,8.0,41,0.00,,,0.00,VWS V14.01,2013-09-06 21:30:00,
2013-09-06 16:34:00,96.2,68.7,29.98,SW,214,0.0,4.0,41,0.00,,,0.00,VWS V14.01,2013-09-06 21:34:00,
2013-09-06 16:39:00,96.0,68.5,29.98,ESE,110,1.0,6.0,41,0.00,,,0.00,VWS V14.01,2013-09-06 21:39:00,
2013-09-06 16:44:00,95.6,67.4,29.98,SSE,167,2.0,6.0,40,0.00,,,0.00,VWS V14.01,2013-09-06 21:44:00,
2013-09-06 16:49:00,95.7,68.2,29.98,South,183,0.0,6.0,41,0.00,,,0.00,VWS V14.01,2013-09-06 21:49:00,
2013-09-06 16:54:00,95.9,68.4,29.98,South,183,0.0,6.0,41,0.00,,,0.00,VWS V14.01,2013-09-06 21:54:00,
2013-09-06 16:59:00,96.0,68.5,29.98,SW,234,0.0,6.0,41,0.00,,,0.00,VWS V14.01,2013-09-06 21:59:00,
2013-09-06 17:00:00,95.9,67.7,29.97,SW,234,0.0,6.0,40,0.00,,,0.00,VWS V14.01,2013-09-06 22:00:00,
2013-09-06 17:04:00,95.7,67.5,29.97,SW,230,0.0,1.0,40,0.00,,,0.00,VWS V14.01,2013-09-06 22:04:00,
2013-09-06 17:09:00,95.5,67.4,29.97,SW,231,1.0,3.0,40,0.00,,,0.00,VWS V14.01,2013-09-06 22:09:00,
2013-09-06 17:14:00,95.8,67.6,29.97,SW,223,1.0,3.0,40,0.00,,,0.00,VWS V14.01,2013-09-06 22:14:00,
2013-09-06 17:19:00,95.3,67.9,29.97,South,173,1.0,5.0,41,0.00,,,0.00,VWS V14.01,2013-09-06 22:19:00,
2013-09-06 17:24:00,94.9,66.8,29.97,South,169,0.0,5.0,40,0.00,,,0.00,VWS V14.01,2013-09-06 22:24:00,
2013-09-06 17:29:00,94.5,66.5,29.97,South,169,0.0,5.0,40,0.00,,,0.00,VWS V14.01,2013-09-06 22:29:00,
2013-09-06 17:30:00,94.4,67.1,29.97,South,169,0.0,5.0,41,0.00,,,0.00,VWS V14.01,2013-09-06 22:30:00,
2013-09-06 17:34:00,94.3,67.7,29.97,South,169,0.0,1.0,42,0.00,,,0.00,VWS V14.01,2013-09-06 22:34:00,
2013-09-06 17:39:00,94.1,66.8,29.97,South,169,0.0,1.0,41,0.00,,,0.00,VWS V14.01,2013-09-06 22:39:00,
2013-09-06 17:44:00,93.7,66.5,29.97,South,169,0.0,1.0,41,0.00,,,0.00,VWS V14.01,2013-09-06 22:44:00,
2013-09-06 17:49:00,93.3,66.8,29.97,South,188,0.0,6.0,42,0.00,,,0.00,VWS V14.01,2013-09-06 22:49:00,
2013-09-06 17:54:00,92.9,65.8,29.97,SSW,196,0.0,6.0,41,0.00,,,0.00,VWS V14.01,2013-09-06 22:54:00,
2013-09-06 17:59:00,92.6,67.5,29.97,SSW,195,0.0,6.0,44,0.00,,,0.00,VWS V14.01,2013-09-06 22:59:00,
2013-09-06 18:04:00,92.4,67.3,29.97,SSW,196,0.0,0.0,44,0.00,,,0.00,VWS V14.01,2013-09-06 23:04:00,
2013-09-06 18:09:00,92.2,66.5,29.97,SSW,195,0.0,1.0,43,0.00,,,0.00,VWS V14.01,2013-09-06 23:09:00,
2013-09-06 18:14:00,91.9,66.9,29.96,SSW,196,0.0,3.0,44,0.00,,,0.00,VWS V14.01,2013-09-06 23:14:00,
2013-09-06 18:19:00,91.7,67.4,29.96,SSW,196,0.0,5.0,45,0.00,,,0.00,VWS V14.01,2013-09-06 23:19:00,
2013-09-06 18:24:00,91.4,67.1,29.96,SSW,195,0.0,5.0,45,0.00,,,0.00,VWS V14.01,2013-09-06 23:24:00,
2013-09-06 18:29:00,91.2,67.6,29.96,SSW,196,0.0,5.0,46,0.00,,,0.00,VWS V14.01,2013-09-06 23:29:00,
2013-09-06 18:30:00,91.0,67.4,29.96,SSW,195,0.0,5.0,46,0.00,,,0.00,VWS V14.01,2013-09-06 23:30:00,
2013-09-06 18:34:00,91.0,67.4,29.96,SSW,196,0.0,0.0,46,0.00,,,0.00,VWS V14.01,2013-09-06 23:34:00,
2013-09-06 18:39:00,90.8,67.2,29.96,SSW,195,0.0,1.0,46,0.00,,,0.00,VWS V14.01,2013-09-06 23:39:00,
2013-09-06 18:44:00,90.6,67.6,29.96,SSW,196,0.0,1.0,47,0.00,,,0.00,VWS V14.01,2013-09-06 23:44:00,
2013-09-06 18:49:00,90.5,66.9,29.96,SSW,196,0.0,1.0,46,0.00,,,0.00,VWS V14.01,2013-09-06 23:49:00,
2013-09-06 18:54:00,90.3,67.3,29.96,SSW,196,0.0,1.0,47,0.00,,,0.00,VWS V14.01,2013-09-06 23:54:00,
2013-09-06 18:59:00,90.1,67.8,29.96,SSW,195,0.0,1.0,48,0.00,,,0.00,VWS V14.01,2013-09-06 23:59:00,
2013-09-06 19:00:00,90.0,67.7,29.96,SSW,196,0.0,1.0,48,0.00,,,0.00,VWS V14.01,2013-09-07 00:00:00,
2013-09-06 19:04:00,89.9,68.2,29.96,SSW,196,0.0,0.0,49,0.00,,,0.00,VWS V14.01,2013-09-07 00:04:00,
2013-09-06 19:09:00,89.6,67.9,29.96,SSW,196,0.0,0.0,49,0.00,,,0.00,VWS V14.01,2013-09-07 00:09:00,
2013-09-06 19:14:00,89.2,68.2,29.96,SSW,196,0.0,0.0,50,0.00,,,0.00,VWS V14.01,2013-09-07 00:14:00,
2013-09-06 19:20:00,88.8,68.4,29.95,SSW,196,0.0,0.0,51,0.00,,,0.00,VWS V14.01,2013-09-07 00:20:00,
2013-09-06 19:25:00,88.4,68.6,29.95,SSW,196,0.0,0.0,52,0.00,,,0.00,VWS V14.01,2013-09-07 00:25:00,
2013-09-06 19:30:00,88.0,68.7,29.95,SSW,196,0.0,0.0,53,0.00,,,0.00,VWS V14.01,2013-09-07 00:30:00,
2013-09-06 19:35:00,87.5,68.8,29.96,SSW,196,0.0,0.0,54,0.00,,,0.00,VWS V14.01,2013-09-07 00:35:00,
2013-09-06 19:40:00,87.0,69.4,29.95,SSW,196,0.0,0.0,56,0.00,,,0.00,VWS V14.01,2013-09-07 00:40:00,
2013-09-06 19:45:00,86.5,69.5,29.95,SSW,196,0.0,0.0,57,0.00,,,0.00,VWS V14.01,2013-09-07 00:45:00,
2013-09-06 19:50:00,85.9,68.9,29.95,SSW,195,0.0,0.0,57,0.00,,,0.00,VWS V14.01,2013-09-07 00:50:00,
2013-09-06 19:55:00,85.3,69.4,29.95,SSW,196,0.0,0.0,59,0.00,,,0.00,VWS V14.01,2013-09-07 00:55:00,
2013-09-06 20:00:00,84.7,69.3,29.95,SSW,195,0.0,0.0,60,0.00,,,0.00,VWS V14.01,2013-09-07 01:00:00,
2013-09-06 20:05:00,84.2,68.3,29.95,SSW,196,0.0,0.0,59,0.00,,,0.00,VWS V14.01,2013-09-07 01:05:00,
2013-09-06 20:10:00,83.6,68.7,29.95,SSW,196,0.0,0.0,61,0.00,,,0.00,VWS V14.01,2013-09-07 01:10:00,
2013-09-06 20:15:00,83.1,68.7,29.95,SSW,195,0.0,0.0,62,0.00,,,0.00,VWS V14.01,2013-09-07 01:15:00,
2013-09-06 20:20:00,82.6,68.7,29.95,SSW,196,0.0,0.0,63,0.00,,,0.00,VWS V14.01,2013-09-07 01:20:00,
2013-09-06 20:25:00,82.2,68.4,29.96,SSW,196,0.0,0.0,63,0.00,,,0.00,VWS V14.01,2013-09-07 01:25:00,
2013-09-06 20:30:00,81.9,68.5,29.96,SSW,196,0.0,0.0,64,0.00,,,0.00,VWS V14.01,2013-09-07 01:30:00,
2013-09-06 20:35:00,81.5,68.6,29.96,SSW,196,0.0,0.0,65,0.00,,,0.00,VWS V14.01,2013-09-07 01:35:00,
2013-09-06 20:40:00,81.2,68.8,29.96,SSW,196,0.0,0.0,66,0.00,,,0.00,VWS V14.01,2013-09-07 01:40:00,
2013-09-06 20:45:00,80.9,68.9,29.96,SSW,196,0.0,0.0,67,0.00,,,0.00,VWS V14.01,2013-09-07 01:45:00,
2013-09-06 20:50:00,80.6,68.6,29.96,SSW,196,0.0,0.0,67,0.00,,,0.00,VWS V14.01,2013-09-07 01:50:00,
2013-09-06 20:55:00,80.3,68.3,29.96,SSW,195,0.0,0.0,67,0.00,,,0.00,VWS V14.01,2013-09-07 01:55:00,
2013-09-06 21:00:00,80.1,68.2,29.96,SSW,195,0.0,0.0,67,0.00,,,0.00,VWS V14.01,2013-09-07 02:00:00,
2013-09-06 21:05:00,79.8,68.3,29.96,SSW,195,0.0,0.0,68,0.00,,,0.00,VWS V14.01,2013-09-07 02:05:00,
2013-09-06 21:10:00,79.6,68.5,29.96,SSW,195,0.0,0.0,69,0.00,,,0.00,VWS V14.01,2013-09-07 02:10:00,
2013-09-06 21:15:00,79.4,68.3,29.96,SSW,195,0.0,0.0,69,0.00,,,0.00,VWS V14.01,2013-09-07 02:15:00,
2013-09-06 21:20:00,79.2,68.2,29.96,SSW,196,0.0,0.0,69,0.00,,,0.00,VWS V14.01,2013-09-07 02:20:00,
2013-09-06 21:25:00,79.0,68.0,29.96,SSW,196,0.0,0.0,69,0.00,,,0.00,VWS V14.01,2013-09-07 02:25:00,
2013-09-06 21:30:00,78.8,68.2,29.96,SSW,196,0.0,0.0,70,0.00,,,0.00,VWS V14.01,2013-09-07 02:30:00,
2013-09-06 21:35:00,78.7,68.1,29.96,SSW,195,0.0,0.0,70,0.00,,,0.00,VWS V14.01,2013-09-07 02:35:00,
2013-09-06 21:40:00,78.6,68.0,29.96,SSW,196,0.0,0.0,70,0.00,,,0.00,VWS V14.01,2013-09-07 02:40:00,
2013-09-06 21:45:00,78.5,67.9,29.97,SSW,196,0.0,0.0,70,0.00,,,0.00,VWS V14.01,2013-09-07 02:45:00,
2013-09-06 21:50:00,78.3,67.7,29.96,SSW,195,0.0,0.0,70,0.00,,,0.00,VWS V14.01,2013-09-07 02:50:00,
2013-09-06 21:55:00,78.1,67.5,29.96,SSW,196,0.0,0.0,70,0.00,,,0.00,VWS V14.01,2013-09-07 02:55:00,
2013-09-06 22:00:00,78.0,67.4,29.96,SSW,196,0.0,0.0,70,0.00,,,0.00,VWS V14.01,2013-09-07 03:00:00,
2013-09-06 22:05:00,77.9,67.3,29.96,SSW,196,0.0,0.0,70,0.00,,,0.00,VWS V14.01,2013-09-07 03:05:00,
2013-09-06 22:10:00,77.8,67.2,29.96,SSW,196,0.0,0.0,70,0.00,,,0.00,VWS V14.01,2013-09-07 03:10:00,
2013-09-06 22:15:00,77.6,67.1,29.96,SSW,196,0.0,0.0,70,0.00,,,0.00,VWS V14.01,2013-09-07 03:15:00,
2013-09-06 22:20:00,77.5,67.4,29.96,SSW,195,0.0,0.0,71,0.00,,,0.00,VWS V14.01,2013-09-07 03:20:00,
2013-09-06 22:25:00,77.4,67.3,29.96,SSW,195,0.0,0.0,71,0.00,,,0.00,VWS V14.01,2013-09-07 03:25:00,
2013-09-06 22:30:00,77.2,67.1,29.96,SSW,196,0.0,0.0,71,0.00,,,0.00,VWS V14.01,2013-09-07 03:30:00,
2013-09-06 22:35:00,77.1,67.0,29.96,SSW,196,0.0,0.0,71,0.00,,,0.00,VWS V14.01,2013-09-07 03:35:00,
2013-09-06 22:40:00,77.0,66.9,29.96,SSW,196,0.0,0.0,71,0.00,,,0.00,VWS V14.01,2013-09-07 03:40:00,
2013-09-06 22:45:00,76.8,66.7,29.96,SSW,195,0.0,0.0,71,0.00,,,0.00,VWS V14.01,2013-09-07 03:45:00,
2013-09-06 22:50:00,76.7,67.0,29.96,SSW,195,0.0,0.0,72,0.00,,,0.00,VWS V14.01,2013-09-07 03:50:00,
2013-09-06 22:55:00,76.6,66.9,29.96,SSW,195,0.0,0.0,72,0.00,,,0.00,VWS V14.01,2013-09-07 03:55:00,
2013-09-06 23:00:00,76.4,66.7,29.96,SSW,195,0.0,0.0,72,0.00,,,0.00,VWS V14.01,2013-09-07 04:00:00,
2013-09-06 23:01:00,76.4,66.7,29.96,SSW,195,0.0,0.0,72,0.00,,,0.00,VWS V14.01,2013-09-07 04:01:00,
2013-09-06 23:02:00,76.4,66.7,29.96,SSW,196,0.0,0.0,72,0.00,,,0.00,VWS V14.01,2013-09-07 04:02:00,
2013-09-06 23:07:00,76.2,66.5,29.96,SSW,195,0.0,0.0,72,0.00,,,0.00,VWS V14.01,2013-09-07 04:07:00,
2013-09-06 23:12:00,76.1,66.8,29.97,SSW,196,0.0,0.0,73,0.00,,,0.00,VWS V14.01,2013-09-07 04:12:00,
2013-09-06 23:17:00,76.0,66.7,29.97,SSW,196,0.0,0.0,73,0.00,,,0.00,VWS V14.01,2013-09-07 04:17:00,
2013-09-06 23:22:00,75.9,66.6,29.97,SSW,195,0.0,0.0,73,0.00,,,0.00,VWS V14.01,2013-09-07 04:22:00,
2013-09-06 23:27:00,75.7,66.4,29.97,SSW,196,0.0,0.0,73,0.00,,,0.00,VWS V14.01,2013-09-07 04:27:00,
2013-09-06 23:30:00,75.6,66.3,29.97,SSW,195,0.0,0.0,73,0.00,,,0.00,VWS V14.01,2013-09-07 04:30:00,
2013-09-06 23:32:00,75.6,66.3,29.97,SSW,195,0.0,0.0,73,0.00,,,0.00,VWS V14.01,2013-09-07 04:32:00,
2013-09-06 23:37:00,75.5,66.2,29.97,SSW,195,0.0,0.0,73,0.00,,,0.00,VWS V14.01,2013-09-07 04:37:00,
2013-09-06 23:42:00,75.4,66.5,29.97,SSW,196,0.0,0.0,74,0.00,,,0.00,VWS V14.01,2013-09-07 04:42:00,
2013-09-06 23:47:00,75.2,66.3,29.97,SSW,196,0.0,0.0,74,0.00,,,0.00,VWS V14.01,2013-09-07 04:47:00,
2013-09-06 23:52:00,75.1,66.2,29.97,SSW,196,0.0,0.0,74,0.00,,,0.00,VWS V14.01,2013-09-07 04:52:00,
2013-09-06 23:57:00,75.0,66.2,29.97,SSW,195,0.0,0.0,74,0.00,,,0.00,VWS V14.01,2013-09-07 04:57:00,